Regional Weather Roundup
Issued by NWS

Home | Current Version | Previous Version | Graphics & Text | Print | Product List | Glossary On
Versions: 1 2 3 4 5 6 7 8 9 10 11 12 13 14 15 16 17 18 19 20 21 22 23 24 25 26 27
000
ASUS45 KSLC 181510
RWRUT

UTAH REGIONAL WEATHER ROUNDUP
NATIONAL WEATHER SERVICE SALT LAKE CITY UT
800 AM MST WED JAN 18 2017

UTZ001>011-023>025-181600-

NORTHERN UTAH

CITY           SKY/WX    TMP DP  RH WIND       PRES   REMARKS
BRIGHAM CITY     N/A      9   5  84 NW3       30.19S
DUGWAY         FOG       19  18  96 NE5       30.19  VSB 1   WCI  12
HILL AFB       CLEAR     13   5  72 E12       30.15R WCI  -1
LOGAN          CLEAR      1  -2  87 CALM      30.19S FOG
OGDEN          PTCLDY    11   8  88 N3        30.16S FOG
SALT LAKE CITY PTCLDY    20  17  88 N7        30.17R FOG     WCI  11
TOOELE VALLEY  MOCLDY    19  18  93 CALM      30.17F FOG
WENDOVER       CLOUDY    21  18  86 E3        30.17S
HEBER CITY     PTCLDY    -2  -8  78 CALM      30.14S
WEST JORDAN    PTCLDY    19  19 100 NW6       30.15R WCI  11

$$

UTZ011>015-024>027-181600-

CENTRAL/NORTHEAST UTAH

CITY           SKY/WX    TMP DP  RH WIND       PRES   REMARKS
PROVO AIRPORT  PTCLDY    15  12  88 S6        30.17F WCI   6
MOAB/CANYONLAN CLEAR     25  22  88 CALM      30.15S
DELTA          CLEAR     18  16  93 E3        30.14F
PRICE          PTCLDY     9   2  73 NE5       30.13S WCI   1
RICHFIELD      CLEAR     18  18 100 SW2       30.19F FOG
ROOSEVELT      LGT SNOW  14  12  92 W6        30.26S WCI   5
VERNAL         CLOUDY    12  10  92 N8        30.23S FOG     WCI   0

$$

UTZ013>016-019>022-027-181600-

SOUTHERN UTAH

CITY           SKY/WX    TMP DP  RH WIND       PRES   REMARKS
BRYCE CANYON   PTCLDY     2  -3  80 W10       30.12F WCI -14
CEDAR CITY     CLEAR     15  11  83 CALM      30.11S
MILFORD        CLEAR     18  15  88 S3        30.11F
ST GEORGE      MOSUNNY   28  23  80 S3        30.20S
HANKSVILLE     PTCLDY    19  19 100 MISG      30.20S
KANAB          CLEAR     23  21  93 NE1       30.20S
BLANDING       CLOUDY    28  27  99 CALM      30.20R

$$

REGIONAL REPORTS     COLORADO/ARIZONA

CITY           SKY/WX    TMP DP  RH WIND       PRES   REMARKS
CRAIG, CO      FOG        1  -2  87 CALM      30.16S VSB 1/4
GRAND JUNCTION CLOUDY    26  25  96 N3        30.14S
RIFLE, CO      CLOUDY    24  21  88 S3        30.14F
MONTROSE, CO   CLOUDY    30  26  85 SE6       30.15S WCI  24
CORTEZ, CO     CLEAR     22  20  92 NE5       30.13S WCI  16
COLORADO CITY    N/A     23  23 100 CALM      30.18R
PAGE, AZ       CLEAR     31  24  75 CALM      30.15S
GRAND CANYON   CLEAR     18  16  92 CALM      30.15F
KINGMAN, AZ    CLEAR     28  23  81 MISG      30.14S
FLAGSTAFF, AZ  CLEAR     21  19  92 CALM      30.15S

$$

REGIONAL REPORTS    NEVADA/IDAHO/WYOMING

CITY           SKY/WX    TMP DP  RH WIND       PRES   REMARKS
LAS VEGAS, NV  PTCLDY    38  24  57 CALM      30.14S
ELY, NY        MOCLDY    10   2  69 S14       30.09S WCI  -6
ELKO, NV       MOCLDY     6  -1  73 E6        30.10F WCI  -4
POCATELLO, ID  CLOUDY     2  -2  83 CALM      30.10S
BURLEY, ID     CLEAR     17  10  74 VRB5      30.01F WCI  10
FORT BRIDGER,    N/A      8   2  76 CALM      30.08F
EVANSTON, WY   CLOUDY    16   5  62 S6        30.06F WCI   7
ROCK SPRINGS,  CLOUDY    -4  -8  83 S6        30.08S FOG     WCI -16

$$




USA.gov is the U.S. government's official web portal to all federal, state and local government web resources and services.